Location: Asheville, NC
(35.6000°N, 82.5500°W)
Time: 01:29:54
(UTC-05:00)

N. Korean satellite - Pass Details

Date: 17 February 2018
Orbit: 459 x 514 km, 97.2° (Epoch: 23 February)

Event Time Altitude Azimuth Distance (km) Brightness Sun altitude
Rises 06:39:18 0° 21° (NNE) 2,563 10.4 -7.9°
Reaches altitude 10° 06:41:30 10° 31° (NNE) 1,687 9.6 -7.4°
Maximum altitude 06:44:51 34° 98° (E) 827 8.6 -6.8°
Drops below altitude 10° 06:48:13 10° 165° (SSE) 1,702 9.7 -6.1°
Sets 06:50:26 0° 174° (S) 2,589 10.5 -5.6°
